This is the latest recevied weather packets stored in our database for station/object EA5CLU-13. If no packets are shown the sender has not sent any weather packets the latest 10 day(s).
| Time | Temp. | Humidity | Pressure | Rain* | Wind** | Luminosity | Snow |
|---|---|---|---|---|---|---|---|
| 1787750042 | 27.78° C | - | 1013.6 hPa | 0 mm | - | - | - |
| 1787749742 | 27.78° C | - | 1013.7 hPa | 0 mm | - | - | - |
| 1787749443 | 27.78° C | - | 1013.6 hPa | 0 mm | - | - | - |
| 1787749143 | 27.78° C | - | 1013.7 hPa | 0 mm | - | - | - |
| 1787748843 | 27.22° C | - | 1013.7 hPa | 0 mm | - | - | - |
| 1787748542 | 27.78° C | - | 1013.6 hPa | 0 mm | - | - | - |
| 1787748241 | 27.78° C | - | 1013.8 hPa | 0 mm | - | - | - |
| 1787747943 | 27.78° C | - | 1013.9 hPa | 0 mm | - | - | - |
| 1787747642 | 27.78° C | - | 1014.1 hPa | 0 mm | - | - | - |
| 1787747343 | 27.78° C | - | 1014 hPa | 0 mm | - | - | - |
| 1787747043 | 28.33° C | - | 1014.1 hPa | 0 mm | - | - | - |
| 1787746742 | 27.78° C | - | 1014.2 hPa | 0 mm | - | - | - |
| 1787746442 | 28.33° C | - | 1014.3 hPa | 0 mm | - | - | - |
| 1787746141 | 28.33° C | - | 1014.3 hPa | 0 mm | - | - | - |
| 1787745842 | 27.78° C | - | 1014.2 hPa | 0 mm | - | - | - |
| 1787745542 | 27.78° C | - | 1014.3 hPa | 0 mm | - | - | - |
| 1787745241 | 27.78° C | - | 1014.3 hPa | 0 mm | - | - | - |
| 1787744943 | 27.78° C | - | 1014.5 hPa | 0 mm | - | - | - |
| 1787744643 | 27.78° C | - | 1014.6 hPa | 0 mm | - | - | - |
| 1787744343 | 27.22° C | - | 1014.8 hPa | 0 mm | - | - | - |
| 1787743744 | 28.33° C | - | 1014.9 hPa | 0 mm | - | - | - |
| 1787743442 | 27.78° C | - | 1015.2 hPa | 0 mm | - | - | - |
| 1787742843 | 27.22° C | - | 1015.3 hPa | 0 mm | - | - | - |
| 1787742543 | 26.67° C | - | 1015.1 hPa | 0 mm | - | - | - |
| 1787741943 | 26.11° C | - | 1015.3 hPa | 0 mm | - | - | - |
* Rain latest hour (hover to see other rain measurements)
** Current wind speed in m/s (hover to see current wind gust speed)